Flag for Mexico Weather past 2 weeks in Monterrey, Nuevo León, Mexico

Now
79 °F

Clear.


Feels Like: 81 °F
Forecast: 71 / 95 °F
Wind: 14 mph from East

Location: Monterrey / Gen Maria

Current Time: Aug 20, 2014 at 3:58:03 AM

Latest Report: Aug 20, 2014 at 2:42 AM


Visibility: 10 mi

Pressure: 29.86 "Hg

Humidity: 65%

Dew point: 66 °F

Location of MonterreyLocation

Historic Weather in Monterrey — Graph

°F

Monterrey temperature yesterday

Maximum temperature yesterday: 97 °F (at 4:51 PM)
Minimum temperature yesterday: 73 °F (at 6:13 AM)
Average temperature yesterday: 84 °F

Past Weeks' High & Low Weather Summary

 TemperatureHumidityPressure
High100 °F (Aug 6, 4:43 PM)94% (Aug 8, 5:01 PM)30.15 "Hg (Aug 8, 5:01 PM)
Low70 °F (Aug 8, 5:01 PM)18% (Aug 7, 5:45 PM)29.69 "Hg (Aug 7, 3:45 PM)
Average84 °F56%29.93 "Hg
* Reported Aug 5 2:40 AM — Aug 20 1:43 AM, Monterrey, Weather by CustomWeather, © 2014

Note: Actual official high and low records may vary slightly from our data, if they occured in-between our weather recording intervals... More about our weather records

Advertising

Monterrey weather history for previous 24 hours

 ConditionsComfort  
Time TempWeatherWind HumidityBarometerVisibility
1:43 AM
Aug 20
81 °FClear.16 mph62%29.87 "Hg10 mi
12:45 AM82 °FClear.15 mph58%29.83 "Hg10 mi
11:42 PM
Aug 19
84 °FPassing clouds.17 mph55%29.87 "Hg15 mi
10:41 PM86 °FPassing clouds.17 mph49%29.85 "Hg15 mi
9:47 PM88 °FPartly cloudy.15 mph38%29.79 "Hg15 mi
7:48 PM91 °FBroken clouds.12 mph32%29.77 "Hg12 mi
6:49 PM95 °FBroken clouds.7 mph28%29.72 "Hg12 mi
5:49 PM97 °FBroken clouds.9 mph25%29.76 "Hg12 mi
4:51 PM97 °FBroken clouds.10 mph27%29.77 "Hg12 mi
3:48 PM95 °FScattered clouds.9 mph30%29.74 "Hg10 mi
11:47 AM84 °FPartly sunny.10 mph55%29.92 "Hg8 mi
10:47 AM82 °FBroken clouds.6 mph58%29.92 "Hg7 mi
9:51 AM81 °FPartly sunny.6 mph62%29.90 "Hg7 mi
8:50 AM77 °FPartly sunny.8 mph74%29.92 "Hg7 mi
7:48 AM75 °FPassing clouds.7 mph78%29.91 "Hg7 mi
6:13 AM73 °FClear.6 mph74%29.86 "Hg10 mi
4:40 AM75 °FClear.6 mph69%29.86 "Hg10 mi
3:49 AM75 °FClear.6 mph69%29.84 "Hg10 mi
Weather by CustomWeather, © 2014

See weather overviewHow to use our weather pages